Regional Weather Roundup
Issued by NWS

Home | Current Version | Previous Version | Text Only | Print | Product List | Glossary On
Versions: 1 2 3 4 5 6 7 8 9 10 11 12 13 14 15 16 17 18 19 20 21 22 23 24 25 26 27 28 29 30 31 32 33 34 35 36 37 38 39 40 41 42 43 44 45 46 47 48 49 50
000
ASUS42 KTBW 061417
RWRFL
FLORIDA REGIONAL WEATHER ROUNDUP
NATIONAL WEATHER SERVICE TAMPA BAY RUSKIN FL
1000 AM EDT WED MAY 06 2015

NOTE: "FAIR" INDICATES FEW OR NO CLOUDS BELOW 12,000 FEET WITH NO
SIGNIFICANT WEATHER AND/OR OBSTRUCTIONS TO VISIBILITY.


FLZ001>010-012>015-112-114-115-061500-
PANHANDLE FLORIDA

CITY           SKY/WX    TMP DP  RH WIND       PRES   REMARKS
PENSACOLA      MOSUNNY   73  65  75 E9        30.13R
PENSACOLA NAS  PTSUNNY   75  67  76 E12       30.12R
MILTON NAS     MOSUNNY   73  61  65 SE8       30.13
CRESTVIEW      SUNNY     75  62  64 E6        30.15S
DUKE FIELD     SUNNY     74  59  58 E8        30.13R
VALPARAISO     SUNNY     73  62  68 SE6       30.13S
MARY ESTHER    SUNNY     75  61  62 E9        30.12R
PANAMA CITY    FAIR      74  61  63 NE5       30.12S
TYNDALL AFB    SUNNY     74  63  69 NE6       30.12S
APALACHICOLA   SUNNY     76  65  68 E8        30.12R

STATION/POSITION SKY/WX   TEMP    WIND        PRES    WAVE   SWELL
                          AIR SEA DIR/SP/G            HT/PER HT/PER
                          (F)     (DEG/KT/KT) (MB)    (FT/S) (FT/S)
30.1N   87.6W              73 74   90/ 16/ 17 1018.8R   4/ 6   2/ 7
29.2N   88.2W              75 75  110/ 17/ 21 1018.8R   5/ 7   2/ 8
28.8N   86.0W              73 76  100/ 16/ 17 1019.1R   4/ 6
PANAMA CITY BEAC           70 75   90/  5/ 13 1019.8R
CAPE SAN BLAS    NOT AVBL
TOWER C                    70      70/ 12/ 13 1019.4R
28.5N   84.5W              74 74   70/ 12/ 16 1018.8R   3/ 5   2/ 7

$$
FLZ011-016>038-118-127-128-134-139-239-061500-
NORTH FLORIDA

CITY           SKY/WX    TMP DP  RH WIND       PRES   REMARKS
MARIANNA       SUNNY     73  64  73 VRB7      30.14S
TALLAHASSEE    MOSUNNY   76  63  64 VRB3      30.13S
PERRY          SUNNY     73  66  76 NE8       30.13S
CROSS CITY       N/A     76  66  71 NE7       30.10F
LAKE CITY      CLOUDY    72  66  83 NE9       30.12S
GAINESVILLE    CLOUDY    74  66  76 N14       30.11S
MAYPORT NAS    CLOUDY    73  68  84 N13       30.11S
JACKSONVILLE   CLOUDY    73  68  84 N8        30.11S
JAX NAS        CLOUDY    78  66  66 N16       30.11S
JAX CRAIG      PTSUNNY   75  67  76 NE12      30.11S
JAX CECIL      PTSUNNY   72  68  88 N8        30.12R
FERNANDINA BEA CLOUDY    79  70  73 N13       30.11S
ST AUGUSTINE   CLOUDY    73  70  90 N12       30.11S

STATION/POSITION SKY/WX   TEMP    WIND        PRES    WAVE   SWELL
                          AIR SEA DIR/SP/G            HT/PER HT/PER
                          (F)     (DEG/KT/KT) (MB)    (FT/S) (FT/S)
SHELL POINT                69      40/  6/  9   N/A
KEATON BEACH               73      50/  9/ 12 1019.8R
CEDAR KEY                  72      60/  8/  9 1019.5S
FERNANDINA                 72 74   30/  7/ 13 1019.2R
30.7N   81.3W                 71                N/A     5/ 8
MAYPORT                    72 74   30/ 14/ 15 1019.6R
31.4N   80.9W              68 70   40/ 21/ 25 1020.0S   5/ 8   3/ 8
ST AUGUSTINE               71 72   10/ 13/ 15 1019.8R

$$
FLZ040-043>046-052-053-057-058-063-144-061500-
INTERIOR CENTRAL FLORIDA

CITY           SKY/WX    TMP DP  RH WIND       PRES   REMARKS
OCALA          PTSUNNY   75  64  69 NE9       30.10S
THE VILLAGES     N/A     73  72  94 N8        30.00S
LEESBURG       CLOUDY    74  67  78 N8        30.10S
SANFORD        CLOUDY    77  68  73 N9        30.06F
ORLANDO EXEC   PTSUNNY   76  66  71 N9        30.07S
ORLANDO INTL   PTSUNNY   77  68  73 N8        30.07R
KISSIMMEE      PTSUNNY   77  68  73 N9        30.08R
WINTER HAVEN   PTSUNNY   77  68  73 N6        30.09R
LAKELAND       MOSUNNY   72  66  83 NW3       30.09R
BARTOW         PTSUNNY   73  66  78 N7        30.08R
OKEECHOBEE     MOSUNNY   70  68  94 N3        30.06R

$$
FLZ041-047-054-059-064-141-147-061500-
EAST CENTRAL FLORIDA

CITY           SKY/WX    TMP DP  RH WIND       PRES   REMARKS
ORMOND BEACH   PTSUNNY   72  66  83 N9        30.08R FOG
DAYTONA BEACH  CLOUDY    73  69  87 N13       30.09R
DELAND           N/A     73  70  88 N10       30.09S
NEW SMYRNA BEA PTSUNNY   73  68  83 N12G21    30.08R
JFK SPACE CTR  CLOUDY    74  69  84 N10       30.05R
TITUSVILLE     PTSUNNY   72  72 100 NW9       30.07R
CAPE CANAVERAL CLOUDY    73  70  91 VRB3      30.04R
PATRICK AFB    DRIZZLE   73  70  88 NE5       30.05R
MELBOURNE      CLOUDY    71  67  87 N8        30.06S
VERO BEACH     CLOUDY    75  67  76 NE7       30.05R
FT PIERCE      CLOUDY    74  67  78 NE6       30.04R
STUART         PTSUNNY   72  64  78 N10G21    30.05R

STATION/POSITION SKY/WX   TEMP    WIND        PRES    WAVE   SWELL
                          AIR SEA DIR/SP/G            HT/PER HT/PER
                          (F)     (DEG/KT/KT) (MB)    (FT/S) (FT/S)
28.5N   80.2W              70 77  360/ 10/ 16 1017.4S
28.9N   78.5W              72 78   20/ 12/ 14 1016.3R
TRIDENT PIER               72 75  330/  4/  6 1017.8R
28.4N   80.5W                 75                N/A     4/ 8
27.5N   80.2W                 77                N/A     6/ 8   2/11

$$
FLZ050-056-061-142-242-148-248-149-249-151-251-155-255-
160-260-061500-
WEST CENTRAL FLORIDA

CITY           SKY/WX    TMP DP  RH WIND       PRES   REMARKS
CRYSTAL RIVER  FAIR      75  66  73 NE9       30.09S
INVERNESS      CLOUDY   N/A N/A N/A NE5       30.10S
BROOKSVILLE      N/A     73  67  81 NE7       30.10S
CLEARWATER     MOSUNNY   73  68  84 N6        30.08S
TAMPA INTL     MOSUNNY   74  66  76 NE7       30.08S
TAMPA EXEC     PTSUNNY   77  68  73 N3        30.09S
PLANT CITY     PTSUNNY   72  70  94 N5        30.10R
MACDILL AFB    SUNNY     78  71  77 E8        30.07S
PETER O KNIGHT SUNNY     77  70  78 NE8       30.08S
ST PETERSBURG  SUNNY     75  68  78 E9        30.06S HAZE
SARASOTA       SUNNY     76  66  71 VRB5      30.06R
VENICE         FAIR      77  68  73 NE6       30.07S

STATION/POSITION SKY/WX   TEMP    WIND        PRES    WAVE   SWELL
                          AIR SEA DIR/SP/G            HT/PER HT/PER
                          (F)     (DEG/KT/KT) (MB)    (FT/S) (FT/S)
CEDAR KEY                  72      60/  8/  9 1019.5S
28.5N   84.5W              74 74   70/ 12/ 16 1018.8R   3/ 5   2/ 7
27.3N   84.2W                 77                N/A     4/ 5
CLEARWATER BEACH           69 76   40/  7/  8 1018.5R
MIDDLE TAMPA BAY           71      50/  8/ 11 1018.4R
VENICE                     76 78   60/  5/  7 1017.8R

$$
FLZ066-069-070-075>078-162-262-165-265-061500-
SOUTHWEST FLORIDA AND KEYS

CITY           SKY/WX    TMP DP  RH WIND       PRES   REMARKS
PUNTA GORDA    SUNNY     77  67  71 NE8       30.08S
FT MYERS       SUNNY     77  67  71 NE6       30.06R
SOUTHWEST INTL SUNNY     78  65  63 NE9       30.06R
NAPLES         SUNNY     77  67  71 NE5       30.05R
MARCO ISLAND   PTSUNNY   79  64  61 N6        30.05R
IMMOKALEE      SUNNY    N/A N/A N/A NE3       30.07R
MARATHON       SUNNY     77  70  79 N5        30.05R
KEY WEST NAS   MOSUNNY   79  68  69 NE5       30.05R
KEY WEST INTL  SUNNY     79  69  71 VRB5      30.06R

STATION/POSITION SKY/WX   TEMP    WIND        PRES    WAVE   SWELL
                          AIR SEA DIR/SP/G            HT/PER HT/PER
                          (F)     (DEG/KT/KT) (MB)    (FT/S) (FT/S)
VENICE                     76 78   60/  5/  7 1017.8R
NAPLES                     73 76   10/  5/  7 1017.2R
26.0N   85.6W              78 81   90/ 14/ 16 1017.4R   4/ 6   2/ 7
DRY TORTUGAS               76      80/ 10/ 12 1017.3R
NW FL BAY                  73      20/  2/  3 1017.5
SAND KEY                   76      70/  7/  9 1017.6R
SOMBRERO KEY               74      40/  3/  4 1018.3R
LONG KEY                   72 75  320/  1/  3 1018.6R
MOLASSES REEF              73 79  330/  2/  3 1017.5R

$$
FLZ067-068-071>074-168-172>174-061500-
SOUTHEAST FLORIDA

CITY           SKY/WX    TMP DP  RH WIND       PRES   REMARKS
W PALM BEACH   PTSUNNY   72  69  90 NW10      30.04R
FT LAUDER-EXEC PTSUNNY   73  68  84 NW8       30.04R
FT LAUDERDALE  PTSUNNY   74  68  81 NW9       30.04R
POMPANO BEACH  PTSUNNY   74  67  78 NW13      30.04R
PEMBROKE PINES PTSUNNY   74  67  78 NW13      30.05S
OPA LOCKA      CLOUDY    75  68  78 N9        30.05R
MIAMI          PTSUNNY   75  67  76 NW8       30.05R
WEST KENDALL   MOSUNNY   77  67  71 NW7       30.05R
HOMESTEAD      DRIZZLE   75  66  73 VRB6      30.05R

STATION/POSITION SKY/WX   TEMP    WIND        PRES    WAVE   SWELL
                          AIR SEA DIR/SP/G            HT/PER HT/PER
                          (F)     (DEG/KT/KT) (MB)    (FT/S) (FT/S)
PORT EVERGLADES            73     290/  8/ 12 1017.1R
VIRGINIA KEY               73 76  300/  4/  6 1016.6R
LAKE WORTH                 70 77  320/  6/ 10 1015.8R


USA.gov is the U.S. government's official web portal to all federal, state and local government web resources and services.